OBJECT H

基本信息
目录编号:
68799
目录名称:
OBJECT H
国际标识:
2026-088H
轨道中心:
EARTH
物体状态:
在轨
发射日期:
2026-04-23 UTC
国别:
日本 (JP)
轨道信息
数据来源: 国际轨道数据
星历时间: 2026-09-10T16:26:32+0800
半长轴: 6916.33km
偏心率: 0.0019705
轨道倾角: 97.517°
近地点辐角: 145.666°
升交点赤经: 40.957°
平近点角: 214.584°
近地点: 524.564km
远地点: 551.822km
周期: 95.405分钟
每日圈数: 15.093475
详细信息
发射场:
RLLC
轨道高度:
LEO
数据来源:
AOE Working Group
参考系:
TEME
时间系统:
UTC
历元类型:
SGP4
2D轨道图
3D轨道图
轨道高度分析图
轨道倾角分析图
轨道综合分析图
查看轨道综合分析图